カタログに戻る

NOAA 16 DEB

運用中SSO
NORAD 41126·DEBRIS·🇺🇸 United States

打ち上げ Sep 21, 2000 から Vandenberg Space Force Base

Loading…

次のパス (今後24時間)

TLE

最新Source: Space-Track

元期: Sep 14, 2026, 11:17 UTC

1 41126U 00055BH  26257.47035309  .00001902  00000-0  99591-3 0  9995
2 41126  98.7707 258.5497 0067234 100.6658 260.2095 14.14295098551954

AllMySatでNOAA 16 DEBをリアルタイム追跡

Download on the App Store